Helicity
-10 -5 -2 7 2 -15 -23 -28 -44 -58 -53 -49 -49 -33 -18 -18 19 10 -9 -11 -9 -15 -22 -18 -15 -17 4 13 26 20 11 13 -9 -24 -18 32 12 8 34 21 13 7 -17
9 5 3 5 23 19 20 28 30 3 -5 6 -2 0 -17 -31 -22 -15 -11 -12 -1 -12 -11 0 -1 9 5 20 36 40 37 49 28 -11 -33 -23 12 29 33 36 22 16 3
7 11 23 29 43 49 35 23 25 29 22 25 30 37 34 49 62 58 35 20 -5 -8 33 27 3 43 29 36 54 46 45 57 63 51 19 31 32 43 43 49 46 35 23
24 32 43 41 46 52 48 33 25 22 22 20 23 36 57 70 77 90 86 81 83 85 78 66 66 54 49 57 60 56 69 74 81 78 62 51 52 52 56 54 53 59 58
76 81 74 63 50 52 48 46 35 28 26 28 34 47 51 60 75 77 74 73 78 87 101 118 122 135 137 128 110 117 118 114 111 106 87 78 61 56 55 64 60 55 61
161 101 86 83 58 39 36 38 36 35 35 40 48 57 57 59 78 82 75 73 77 79 81 90 95 87 117 124 133 123 107 90 91 97 90 89 83 77 76 75 79 69 64
143 122 77 70 64 50 32 29 24 27 31 40 51 56 68 74 90 84 81 78 76 81 82 84 87 103 106 111 108 100 92 107 100 95 84 86 85 83 88 82 75 84 81
162 85 92 83 66 54 40 37 32 30 31 37 41 58 80 98 123 100 73 71 73 72 75 78 85 105 125 132 114 101 98 100 91 94 89 80 72 84 83 80 93 81 72
65 50 102 91 54 44 42 31 29 25 30 44 62 72 79 99 122 110 58 52 55 57 70 76 81 80 105 97 91 94 95 90 98 84 97 88 72 63 71 87 74 72 67
406 122 57 71 49 64 39 40 39 32 52 67 81 80 83 75 100 86 67 44 44 46 40 51 76 88 69 62 54 54 61 80 96 97 86 74 61 63 63 84 90 95 79
230 166 97 72 72 55 50 47 44 46 66 81 86 84 80 75 61 58 62 43 46 46 54 60 75 88 78 79 55 70 70 68 58 62 72 76 78 79 84 96 91 98 86
97 85 87 79 66 39 37 26 34 55 72 70 65 57 61 57 62 60 63 64 53 41 52 59 70 93 92 110 99 99 87 76 89 74 86 97 113 116 122 113 102 99 90
147 109 62 55 64 27 37 49 62 66 57 46 42 47 54 61 59 56 60 65 58 45 67 80 63 60 49 57 99 109 82 81 72 78 77 74 74 70 66 76 110 106 100
129 83 62 31 41 59 70 67 76 72 68 64 65 69 67 64 68 73 75 69 54 40 39 69 72 68 86 81 85 96 97 87 68 75 69 66 65 75 78 92 74 80 71
118 130 101 86 77 83 100 87 78 84 84 85 88 84 75 77 88 82 94 95 92 95 56 74 79 85 91 95 91 89 76 63 60 50 44 43 46 47 56 57 59 66 65
106 80 80 77 86 88 88 99 129 101 74 80 109 89 85 93 65 68 81 101 95 69 71 85 91 95 105 108 102 83 70 65 49 33 31 32 35 34 38 29 33 32 36
103 86 91 96 99 91 88 85 91 117 143 115 96 94 75 96 55 63 72 81 92 50 87 91 92 91 84 67 55 46 40 32 16 17 18 22 23 18 20 19 20 19 20
99 109 97 101 98 100 91 78 71 72 78 85 96 89 86 79 74 78 64 43 71 81 91 93 88 63 49 43 39 36 33 29 26 19 15 12 13 9 13 19 14 16 21
97 106 110 103 95 85 73 63 68 76 77 95 129 117 96 65 68 62 54 61 75 78 74 67 54 44 37 32 30 34 35 40 31 26 27 25 24 19 13 11 7 5 1
105 116 106 91 81 68 65 61 73 88 99 108 121 112 118 94 65 71 70 69 58 51 50 50 45 41 36 32 33 37 36 36 34 29 25 20 18 10 12 9 6 6 7
107 100 82 71 61 63 82 96 101 105 107 120 116 104 99 70 62 60 57 56 46 46 40 37 40 37 34 36 38 41 41 40 38 32 28 23 18 16 13 8 4 2 4
81 75 80 91 113 108 94 87 86 88 100 97 84 74 79 35 35 36 36 39 41 44 38 40 39 40 41 41 40 37 38 37 36 31 27 24 20 20 21 21 20 17 16
73 73 87 108 110 101 88 74 65 58 58 45 37 44 54 22 33 29 24 22 24 27 36 36 33 31 33 36 38 35 35 36 41 37 31 31 28 30 23 30 31 34 33
69 38 45 86 111 85 80 69 50 20 20 23 36 37 46 32 22 25 20 19 19 18 28 37 36 31 38 35 38 37 38 37 40 36 28 24 24 27 23 23 28 32 30
70 55 89 105 109 81 78 61 52 39 26 8 30 51 54 47 43 32 26 22 16 30 39 46 52 41 33 31 26 20 42 68 25 40 29 25 18 14 17 20 24 17 18
110 84 102 119 121 81 56 60 58 51 42 25 26 44 46 43 32 31 66 72 53 37 49 42 37 24 17 15 12 18 62 73 57 56 41 40 33 28 30 32 24 27 24
Wind_Speed
12 9 13 17 28 33 36 32 31 31 32 34 38 42 43 38 8 32 43 39 39 40 42 41 41 33 21 17 13 13 15 15 22 17 5 32 21 14 32 17 8 0 12
8 10 14 19 21 23 26 27 28 27 29 31 32 33 41 44 43 39 41 41 38 38 34 25 33 22 26 13 9 10 12 8 9 25 40 2 18 24 25 22 13 10 7
9 9 12 16 18 22 23 24 28 31 29 29 29 30 33 35 35 37 45 48 50 50 34 5 20 18 2 1 7 2 3 7 10 13 11 28 40 44 34 29 23 20 15
12 10 10 13 17 20 24 27 30 32 33 32 32 32 32 31 32 33 36 39 40 38 42 43 39 37 41 42 36 35 38 32 30 31 35 33 35 43 41 40 36 31 34
14 14 12 14 17 20 24 28 31 34 35 36 35 35 35 35 37 38 38 39 40 40 39 41 40 41 41 40 40 41 42 43 45 46 48 50 48 47 46 50 49 51 51
3 16 15 17 21 25 27 29 32 35 37 38 39 37 38 38 41 40 39 39 40 41 42 42 43 42 44 47 47 47 47 49 51 52 55 58 61 58 57 58 60 60 69
1 6 17 21 23 25 27 31 36 38 39 41 42 41 40 41 43 41 41 39 41 42 44 46 47 44 49 51 51 52 51 51 51 57 60 61 65 63 62 64 64 64 64
7 13 21 24 26 26 30 33 37 40 42 43 44 42 40 42 42 42 41 40 41 41 43 45 47 46 47 51 53 54 54 54 54 52 54 57 57 58 60 62 66 69 70
26 30 29 28 30 29 31 33 36 38 41 42 42 40 39 41 45 47 46 45 46 46 44 44 46 47 50 54 54 53 53 53 48 48 53 57 62 63 61 63 64 67 72
28 33 44 36 34 32 29 32 35 37 39 38 37 39 41 44 48 51 51 49 50 49 48 46 45 52 58 58 57 57 57 55 56 59 60 58 56 60 58 57 62 66 69
11 19 43 36 33 29 28 32 33 34 35 35 37 39 42 46 49 52 52 48 49 49 47 48 49 55 56 55 51 51 54 57 56 55 55 54 54 54 55 54 55 57 62
9 24 30 31 32 32 28 30 32 32 33 35 36 39 42 45 49 48 48 47 47 45 47 48 49 54 52 53 54 55 54 53 54 56 54 54 56 57 58 59 60 58 59
7 22 22 26 29 31 28 29 31 32 34 35 37 42 44 45 46 47 48 47 46 45 45 46 49 51 52 50 55 57 54 55 55 57 60 59 60 61 64 62 64 65 62
7 1 15 27 26 27 28 27 28 29 30 33 37 41 45 47 48 48 48 47 46 45 45 47 47 48 49 49 50 50 51 52 55 56 59 60 60 59 60 61 63 64 67
1 3 9 24 26 24 25 26 27 28 28 31 34 39 44 47 47 48 51 50 49 47 47 47 48 49 49 49 48 50 50 51 53 54 56 57 58 58 60 60 60 62 63
4 6 7 7 10 16 20 23 27 28 26 30 31 37 41 43 44 44 44 47 48 46 44 43 44 46 48 47 49 50 51 53 54 55 56 56 57 59 61 59 58 60 62
11 11 10 10 10 15 18 19 21 28 29 29 32 35 40 41 42 43 42 43 43 43 41 41 42 42 44 44 46 47 49 51 52 53 55 56 58 59 60 60 61 61 62
17 12 12 13 15 18 20 21 24 27 31 33 31 32 33 36 39 41 39 36 38 39 39 40 40 40 41 43 45 47 49 51 53 54 55 55 55 57 59 60 61 63 64
13 14 17 19 21 20 21 25 28 32 34 35 32 31 28 32 37 38 37 38 37 37 36 35 35 37 40 42 44 47 50 52 53 54 55 55 57 57 58 59 61 62 64
17 16 16 19 23 25 26 29 31 33 33 32 28 31 31 33 37 38 37 35 33 35 34 34 34 36 38 41 45 47 49 51 52 53 54 55 56 57 59 61 62 65 66
18 17 19 24 25 25 27 29 31 32 32 28 31 34 29 33 36 34 33 32 32 33 34 33 35 36 38 40 43 46 48 49 51 52 53 54 56 58 59 61 63 64 65
17 18 17 21 21 24 26 28 29 32 29 33 35 32 25 29 33 31 29 28 29 30 31 34 37 38 38 38 39 41 44 46 48 49 51 52 54 56 59 61 64 65 67
20 17 17 19 20 24 24 28 31 30 29 27 29 28 26 25 26 28 29 29 28 30 30 33 36 38 37 36 37 38 42 43 44 46 49 51 53 56 58 61 64 67 68
23 23 21 16 16 19 20 20 22 18 20 22 24 24 23 24 25 28 29 30 31 32 32 32 31 33 36 35 37 36 36 36 38 42 44 47 51 54 58 61 64 68 68
25 25 15 18 17 15 18 19 18 16 18 18 20 22 26 28 31 32 33 34 35 35 33 30 29 29 30 32 33 31 31 29 31 35 38 41 45 50 53 57 63 66 68
25 25 25 25 19 21 19 24 27 24 23 22 26 33 37 34 33 34 33 31 31 30 32 35 30 26 24 25 25 24 23 21 25 27 35 40 45 49 52 58 62 66 68
Wind_Direction
76 15 49 44 115 129 144 122 151 177 191 214 219 202 216 258 132 153 194 182 185 191 196 194 196 186 168 157 140 137 153 147 181 169 92 333 355 13 328 360 14 118 197
23 4 340 323 28 27 20 3 356 288 266 272 272 271 242 233 205 181 192 198 191 193 186 170 186 173 185 164 151 157 168 156 170 203 227 202 346 341 340 336 333 325 285
357 13 25 19 21 26 13 348 1 5 344 334 327 317 292 291 295 296 276 267 264 255 312 127 181 337 139 12 342 213 211 337 333 328 323 330 322 319 327 329 328 324 319
322 9 4 16 20 9 6 357 350 347 347 337 333 337 334 329 325 321 316 310 312 316 309 310 314 314 311 311 318 319 316 320 320 319 320 323 323 320 320 321 321 324 323
313 297 314 319 330 353 350 349 341 338 339 340 339 334 330 328 324 321 319 318 316 318 320 317 320 318 318 319 317 316 316 314 313 313 312 314 315 317 317 317 316 316 315
15 289 301 310 310 317 328 337 341 340 337 336 336 339 337 334 326 326 326 326 324 321 319 319 319 321 317 314 313 314 313 312 310 309 309 307 306 308 310 310 310 310 305
143 297 289 300 307 317 327 329 327 328 331 332 333 335 335 332 330 332 331 331 330 328 326 322 319 321 317 314 314 313 312 311 309 307 306 306 305 307 307 306 306 305 306
259 287 284 289 297 307 314 322 324 326 327 328 327 330 335 334 333 333 334 334 331 329 327 324 321 322 321 317 315 313 312 312 312 312 311 310 310 311 310 308 306 304 304
299 274 276 283 287 299 308 319 325 327 326 330 334 337 339 337 331 328 329 329 327 327 328 328 325 324 323 319 317 316 315 315 318 316 314 312 310 309 309 309 307 306 304
264 269 261 268 280 294 307 319 326 326 328 332 338 336 334 331 328 326 325 326 325 325 327 327 329 324 319 318 317 316 315 317 317 315 315 315 314 312 311 308 306 303 304
242 243 242 258 276 294 311 318 326 331 334 337 339 338 336 334 332 331 331 333 332 332 332 329 329 328 328 328 327 324 322 321 321 321 321 322 321 320 319 317 314 309 307
168 241 248 262 275 286 306 318 325 331 334 334 335 336 337 337 335 337 337 338 338 337 336 336 335 333 332 332 330 328 328 328 326 324 325 324 323 322 320 319 317 315 312
112 255 261 274 283 289 309 320 324 328 330 332 332 331 334 337 338 340 340 340 339 338 338 339 337 336 335 334 333 332 332 330 328 325 322 321 321 319 317 317 316 314 314
117 323 285 277 290 303 312 318 324 331 335 335 335 336 337 337 337 339 339 340 341 340 340 340 340 341 342 340 339 340 339 338 335 331 327 325 324 325 325 324 320 319 315
323 330 346 289 293 307 317 323 327 334 340 341 342 342 341 340 341 340 337 337 337 339 338 340 340 340 340 343 344 344 343 343 341 339 335 333 332 331 328 328 326 323 321
336 345 337 346 329 323 324 328 332 335 339 341 346 345 347 346 346 345 343 342 341 341 343 343 344 344 343 345 343 343 344 344 342 341 338 338 337 335 334 335 334 331 326
310 314 314 317 322 320 323 325 328 332 337 337 339 343 343 346 348 346 344 345 344 345 346 348 347 348 348 351 349 348 347 347 347 343 342 340 339 338 337 337 335 334 331
303 306 310 312 314 316 318 319 322 323 324 325 329 336 342 347 348 347 348 349 345 349 349 350 349 348 348 349 349 348 347 347 346 344 343 344 345 345 342 340 339 337 335
304 302 304 302 307 313 316 315 317 319 319 322 328 331 336 342 345 346 348 345 344 345 350 351 352 349 347 347 346 345 344 344 344 344 345 344 343 343 344 344 342 340 337
302 303 303 308 309 309 311 311 313 317 319 321 323 328 335 338 336 338 342 345 344 343 348 348 348 347 344 343 341 342 344 344 343 342 341 342 342 343 341 340 340 338 338
303 302 304 310 312 313 315 316 316 318 320 322 325 328 333 333 333 337 337 339 339 342 343 345 344 343 340 339 340 342 343 343 343 342 342 341 341 340 341 340 338 337 337
302 302 307 312 318 320 320 320 319 318 321 323 325 332 334 331 333 337 339 342 344 346 345 344 342 341 340 340 342 344 343 343 343 343 344 344 344 343 343 341 339 337 335
300 301 306 311 313 317 323 320 318 317 320 325 330 334 338 334 337 338 339 343 345 344 341 342 341 340 341 343 343 342 341 342 344 345 344 345 346 345 344 343 342 339 336
299 295 297 299 308 316 323 330 333 331 331 333 335 341 342 344 340 338 339 343 341 339 337 338 339 339 340 341 341 342 344 346 348 347 348 348 347 347 345 344 342 340 339
299 294 294 294 302 308 314 315 323 327 325 332 335 332 329 327 326 329 330 333 334 334 337 338 337 338 338 340 341 344 349 353 353 354 354 353 352 349 349 347 344 342 340
294 290 299 299 294 298 302 304 304 308 312 318 321 321 320 320 324 325 329 331 333 335 338 338 339 342 344 347 351 354 358 360 356 354 351 348 347 346 346 344 343 341 339